• In Germany
  • List of Countries
  • For 7 days
  • Water Temperature
  • Satellite Maps
  • Weather Map
  • Weather Widgets
  • user-avatar
    Login

    Hourly Weather Bregenz

    Today, 24 September, Sunday

    Time Temperature Precipitation Wind Pressure Humidity
    00:00 +7°C° 0 mm 1 mps 648 mmHg 92%
    01:00 +7°C° 0 mm 1 mps 648 mmHg 91%
    02:00 +7°C° 0.3 mm 1 mps 648 mmHg 91%
    03:00 +7°C° 0.3 mm 1 mps 648 mmHg 90%
    04:00 +6°C° 0.3 mm 0 mps 647 mmHg 90%
    05:00 +6°C° 0.3 mm 0 mps 648 mmHg 90%
    06:00 +6°C° 0.3 mm 0 mps 648 mmHg 91%
    07:00 +6°C° 0.3 mm 0 mps 648 mmHg 91%
    08:00 +8°C° 0.2 mm 1 mps 648 mmHg 86%
    09:00 +10°C° 0.2 mm 1 mps 649 mmHg 81%
    10:00 +11°C° 0.2 mm 1 mps 649 mmHg 76%
    11:00 +12°C° 0.1 mm 1 mps 649 mmHg 71%
    12:00 +13°C° 0.1 mm 1 mps 649 mmHg 66%
    13:00 +14°C° 0.1 mm 1 mps 649 mmHg 61%
    14:00 +14°C° 0.1 mm 1 mps 649 mmHg 61%
    15:00 +13°C° 0.1 mm 1 mps 649 mmHg 62%
    16:00 +13°C° 0.1 mm 1 mps 649 mmHg 63%
    17:00 +11°C° 0 mm 1 mps 649 mmHg 72%
    18:00 +9°C° 0 mm 1 mps 648 mmHg 81%
    19:00 +7°C° 0 mm 1 mps 648 mmHg 90%
    20:00 +6°C° 0 mm 1 mps 648 mmHg 91%
    21:00 +6°C° 0 mm 1 mps 648 mmHg 91%
    22:00 +6°C° 0 mm 1 mps 648 mmHg 92%
    23:00 +5°C° 0 mm 1 mps 648 mmHg 91%

    Tomorrow, 25 September, Monday

    Time Temperature Precipitation Wind Pressure Humidity
    00:00 +5°C° 0 mm 1 mps 647 mmHg 89%
    01:00 +5°C° 0 mm 1 mps 647 mmHg 88%
    02:00 +5°C° 0 mm 1 mps 647 mmHg 86%
    03:00 +4°C° 0 mm 1 mps 647 mmHg 85%
    04:00 +4°C° 0 mm 1 mps 647 mmHg 83%
    05:00 +4°C° 0 mm 1 mps 647 mmHg 81%
    06:00 +5°C° 0 mm 1 mps 647 mmHg 78%
    07:00 +5°C° 0 mm 1 mps 647 mmHg 76%
    08:00 +8°C° 0 mm 1 mps 647 mmHg 69%
    09:00 +9°C° 0 mm 0 mps 648 mmHg 61%
    10:00 +12°C° 0 mm 0 mps 649 mmHg 54%
    11:00 +14°C° 0 mm 1 mps 649 mmHg 50%
    12:00 +14°C° 0 mm 1 mps 649 mmHg 47%
    13:00 +15°C° 0 mm 1 mps 649 mmHg 43%
    14:00 +15°C° 0 mm 1 mps 648 mmHg 46%
    15:00 +15°C° 0 mm 1 mps 648 mmHg 49%
    16:00 +14°C° 0 mm 2 mps 648 mmHg 52%
    17:00 +12°C° 0 mm 1 mps 648 mmHg 62%
    18:00 +10°C° 0 mm 1 mps 648 mmHg 72%
    19:00 +7°C° 0 mm 1 mps 647 mmHg 81%
    20:00 +7°C° 0 mm 1 mps 647 mmHg 82%
    21:00 +7°C° 0 mm 1 mps 648 mmHg 83%
    22:00 +7°C° 0 mm 1 mps 648 mmHg 84%
    23:00 +7°C° 0.1 mm 1 mps 648 mmHg 84%

    Day after tomorrow, 26 September, Tuesday

    Time Temperature Precipitation Wind Pressure Humidity
    00:00 +7°C° 0.1 mm 1 mps 648 mmHg 85%
    01:00 +7°C° 0.1 mm 1 mps 648 mmHg 85%
    02:00 +7°C° 0.1 mm 1 mps 648 mmHg 86%
    03:00 +7°C° 0.1 mm 1 mps 648 mmHg 87%
    04:00 +7°C° 0.1 mm 1 mps 648 mmHg 87%
    05:00 +7°C° 0.1 mm 1 mps 648 mmHg 87%
    06:00 +7°C° 0.1 mm 1 mps 648 mmHg 87%
    07:00 +7°C° 0.1 mm 1 mps 648 mmHg 87%
    08:00 +9°C° 0 mm 1 mps 649 mmHg 80%
    09:00 +11°C° 0 mm 1 mps 649 mmHg 73%
    10:00 +12°C° 0 mm 0 mps 650 mmHg 67%
    11:00 +13°C° 0.1 mm 1 mps 650 mmHg 66%
    12:00 +14°C° 0.1 mm 1 mps 650 mmHg 65%
    13:00 +14°C° 0.1 mm 2 mps 650 mmHg 65%
    14:00 +13°C° 0.3 mm 2 mps 650 mmHg 69%
    15:00 +13°C° 0.3 mm 1 mps 650 mmHg 73%
    16:00 +13°C° 0.3 mm 1 mps 650 mmHg 78%
    17:00 +11°C° 0.3 mm 1 mps 650 mmHg 83%
    18:00 +10°C° 0.3 mm 1 mps 649 mmHg 88%
    19:00 +9°C° 0.3 mm 1 mps 649 mmHg 93%
    20:00 +8°C° 0.2 mm 1 mps 649 mmHg 94%
    21:00 +8°C° 0.2 mm 1 mps 650 mmHg 94%
    22:00 +8°C° 0.2 mm 1 mps 650 mmHg 94%
    23:00 +7°C° 0 mm 1 mps 650 mmHg 94%

    27 September, Wednesday

    Time Temperature Precipitation Wind Pressure Humidity
    00:00 +7°C° 0 mm 1 mps 650 mmHg 94%
    01:00 +6°C° 0 mm 1 mps 650 mmHg 94%
    02:00 +6°C° 0 mm 1 mps 649 mmHg 93%
    03:00 +6°C° 0 mm 1 mps 649 mmHg 93%
    04:00 +6°C° 0 mm 1 mps 649 mmHg 92%
    05:00 +6°C° 0 mm 1 mps 650 mmHg 91%
    06:00 +6°C° 0 mm 1 mps 650 mmHg 90%
    07:00 +6°C° 0 mm 1 mps 650 mmHg 89%
    08:00 +8°C° 0 mm 1 mps 651 mmHg 82%
    09:00 +11°C° 0 mm 1 mps 651 mmHg 74%
    10:00 +12°C° 0 mm 0 mps 652 mmHg 67%
    11:00 +14°C° 0 mm 1 mps 652 mmHg 63%
    12:00 +15°C° 0 mm 1 mps 652 mmHg 59%
    13:00 +16°C° 0 mm 1 mps 653 mmHg 55%
    14:00 +16°C° 0 mm 1 mps 652 mmHg 58%
    15:00 +16°C° 0 mm 2 mps 652 mmHg 61%
    16:00 +15°C° 0 mm 2 mps 652 mmHg 65%
    17:00 +13°C° 0 mm 1 mps 652 mmHg 74%
    18:00 +11°C° 0 mm 1 mps 652 mmHg 84%
    19:00 +9°C° 0 mm 1 mps 651 mmHg 93%
    20:00 +8°C° 0 mm 1 mps 651 mmHg 93%
    21:00 +8°C° 0 mm 1 mps 651 mmHg 92%
    22:00 +8°C° 0 mm 1 mps 652 mmHg 92%
    23:00 +8°C° 0 mm 1 mps 652 mmHg 90%

    28 September, Thursday

    Time Temperature Precipitation Wind Pressure Humidity
    00:00 +7°C° 0 mm 1 mps 651 mmHg 89%
    01:00 +7°C° 0 mm 1 mps 651 mmHg 88%
    02:00 +7°C° 0 mm 1 mps 651 mmHg 87%
    03:00 +7°C° 0 mm 1 mps 651 mmHg 87%
    04:00 +7°C° 0 mm 1 mps 651 mmHg 86%
    05:00 +7°C° 0 mm 1 mps 652 mmHg 86%
    06:00 +7°C° 0 mm 1 mps 652 mmHg 85%
    07:00 +7°C° 0 mm 1 mps 652 mmHg 84%
    08:00 +10°C° 0 mm 1 mps 653 mmHg 77%
    09:00 +12°C° 0 mm 1 mps 654 mmHg 69%
    10:00 +15°C° 0 mm 1 mps 654 mmHg 61%
    11:00 +15°C° 0 mm 1 mps 654 mmHg 58%
    12:00 +16°C° 0 mm 1 mps 654 mmHg 55%
    13:00 +18°C° 0 mm 1 mps 655 mmHg 52%
    14:00 +18°C° 0 mm 1 mps 654 mmHg 55%
    15:00 +16°C° 0 mm 1 mps 654 mmHg 58%
    16:00 +16°C° 0 mm 1 mps 654 mmHg 62%
    17:00 +14°C° 0 mm 1 mps 654 mmHg 71%
    18:00 +12°C° 0 mm 1 mps 653 mmHg 81%
    19:00 +9°C° 0 mm 1 mps 653 mmHg 90%
    20:00 +9°C° 0 mm 1 mps 653 mmHg 91%
    21:00 +9°C° 0 mm 1 mps 653 mmHg 91%
    22:00 +8°C° 0 mm 1 mps 653 mmHg 91%
    23:00 +8°C° 0 mm 1 mps 653 mmHg 90%

    29 September, Friday

    Time Temperature Precipitation Wind Pressure Humidity
    00:00 +8°C° 0 mm 1 mps 653 mmHg 89%
    01:00 +8°C° 0 mm 1 mps 652 mmHg 88%
    02:00 +7°C° 0 mm 1 mps 652 mmHg 87%
    03:00 +7°C° 0 mm 1 mps 652 mmHg 86%
    04:00 +7°C° 0 mm 1 mps 652 mmHg 85%
    05:00 +7°C° 0 mm 1 mps 652 mmHg 83%
    06:00 +7°C° 0 mm 1 mps 652 mmHg 82%
    07:00 +7°C° 0 mm 1 mps 652 mmHg 81%
    08:00 +10°C° 0 mm 1 mps 652 mmHg 72%
    09:00 +13°C° 0 mm 1 mps 653 mmHg 63%
    10:00 +15°C° 0 mm 0 mps 654 mmHg 54%
    11:00 +16°C° 0 mm 1 mps 654 mmHg 52%
    12:00 +18°C° 0 mm 1 mps 653 mmHg 49%
    13:00 +19°C° 0 mm 1 mps 653 mmHg 47%
    14:00 +19°C° 0 mm 1 mps 653 mmHg 51%
    15:00 +18°C° 0 mm 1 mps 653 mmHg 54%
    16:00 +18°C° 0 mm 1 mps 652 mmHg 58%
    17:00 +14°C° 0 mm 1 mps 652 mmHg 68%
    18:00 +12°C° 0 mm 1 mps 651 mmHg 78%
    19:00 +10°C° 0 mm 1 mps 650 mmHg 88%
    20:00 +9°C° 0 mm 1 mps 650 mmHg 87%
    21:00 +9°C° 0 mm 1 mps 650 mmHg 87%
    22:00 +9°C° 0 mm 1 mps 650 mmHg 86%
    23:00 +9°C° 0 mm 1 mps 650 mmHg 85%
    Show more